Location: Mitty Observatory
(35.9148°N, 88.8847°W)
Time: 05:12:08
(UTC-06:00)

LightSail 2 - Pass Details

Date: 27 January 2021
Orbit: 688 x 705 km, 24.0° (Epoch: 09 March)

Event Time Altitude Azimuth Distance (km) Brightness Sun altitude
Exits shadow 05:02:43 17° 197° (SSW) 1,726 7.0 -23.7°
Maximum altitude 05:04:16 19° 173° (S) 1,609 7.1 -23.4°
Drops below altitude 10° 05:07:44 10° 129° (SE) 2,122 8.4 -22.7°
Sets 05:10:45 0° 112° (ESE) 3,037 9.8 -22.1°
